FW0904 Weather Reports


Display with metric or nautical units.
time (UTC)temp
F
wind
direction
speed
MPH
gust
MPH
rain 1hr
in
rain 24hr
in
rain mn
in
humidity
%
barometer
mb
20260505193012 52 47 0.0 0.0 0.00 0.00 0.00 71 1012.8
20260505191515 52 47 0.0 0.0 0.00 0.00 0.00 70 1012.8
20260505190019 53 47 0.0 0.0 0.00 0.00 0.00 68 1012.7
20260505184512 53 47 0.0 1.0 0.00 0.00 0.00 67 1012.6
20260505183010 54 47 0.0 1.0 0.00 0.00 0.00 67 1012.4
20260505181509 54 47 0.0 1.0 0.00 0.00 0.00 66 1012.5
20260505180014 55 47 0.0 1.0 0.00 0.00 0.00 65 1012.4
20260505174509 56 47 0.0 1.0 0.00 0.00 0.00 63 1012.5
20260505173007 57 47 0.0 2.0 0.00 0.00 0.00 62 1012.5
20260505171508 58 47 0.0 1.0 0.00 0.00 0.00 62 1012.4
20260505170007 58 47 0.0 2.0 0.00 0.00 0.00 61 1012.4
20260505164505 59 47 0.0 2.0 0.00 0.00 0.00 60 1012.5
20260505163009 59 47 0.0 3.0 0.00 0.00 0.00 59 1012.5
20260505161502 59 47 0.0 2.0 0.00 0.00 0.00 58 1012.5
20260505153103 61 59 0.0 3.0 0.00 0.00 0.00 57 1012.6
20260505151604 62 43 0.0 2.0 0.00 0.00 0.00 55 1012.7
20260505140107 62 44 0.0 3.0 0.00 0.00 0.00 62 1012.9
20260505124536 58 51 0.0 2.0 0.00 0.00 0.00 71 1013.2
20260505123031 58 63 0.0 2.0 0.00 0.00 0.00 69 1013.3
20260505121535 58 63 0.0 3.0 0.00 0.00 0.00 69 1013.3
20260505120041 58 63 0.0 1.0 0.00 0.00 0.00 73 1013.4
20260505114526 57 63 0.0 2.0 0.00 0.00 0.00 70 1013.4
20260505113024 57 67 0.0 3.0 0.00 0.00 0.00 73 1013.5
20260505111523 56 67 0.0 1.0 0.00 0.00 0.00 76 1013.5
20260505101514 57 57 0.0 3.0 0.00 0.00 0.00 69 1013.5
20260505100012 58 43 0.0 2.0 0.00 0.00 0.00 69 1013.6
20260505094505 58 42 0.0 3.0 0.00 0.00 0.00 71 1013.7
20260505093002 57 53 0.0 2.0 0.00 0.00 0.00 72 1013.8
20260505091607 57 61 0.0 2.0 0.00 0.00 0.00 72 1013.8
20260505090057 56 41 0.0 2.0 0.00 0.00 0.00 75 1013.9
20260505084556 56 40 0.0 3.0 0.00 0.00 0.00 76 1014.0
20260505083058 55 46 0.0 2.0 0.00 0.00 0.00 78 1014.1
20260505081549 54 44 0.0 2.0 0.00 0.00 0.00 78 1014.1
20260505080046 53 44 0.0 2.0 0.00 0.00 0.00 79 1014.0
20260505074544 53 50 0.0 1.0 0.00 0.00 0.00 80 1013.8
20260505073051 52 49 0.0 1.0 0.00 0.00 0.00 82 1014.0
20260505071552 51 53 0.0 0.0 0.00 0.00 0.00 84 1014.1
20260505070040 51 57 0.0 0.0 0.00 0.00 0.00 83 1014.1
20260505064540 51 41 0.0 0.0 0.00 0.00 0.00 84 1014.1
20260505063037 50 49 0.0 0.0 0.00 0.00 0.00 86 1014.1
20260505061536 50 49 0.0 0.0 0.00 0.00 0.00 86 1014.0
20260505060045 50 49 0.0 0.0 0.00 0.00 0.00 86 1013.9
20260505054535 50 49 0.0 0.0 0.00 0.00 0.00 88 1014.1
20260505053033 50 49 0.0 0.0 0.00 0.00 0.00 88 1014.1
20260505051537 49 49 0.0 0.0 0.00 0.00 0.00 89 1014.2
20260505041528 50 49 0.0 0.0 0.00 0.00 0.00 88 1014.4
20260505040026 50 49 0.0 0.0 0.00 0.00 0.00 88 1014.4
20260505034525 50 49 0.0 0.0 0.00 0.00 0.00 88 1014.4
20260505033024 50 49 0.0 0.0 0.00 0.00 0.00 88 1014.4
20260505031523 50 49 0.0 0.0 0.00 0.00 0.00 89 1014.6
20260505030022 50 49 0.0 0.0 0.00 0.00 0.00 89 1014.7
20260505024521 50 49 0.0 0.0 0.00 0.00 0.00 89 1014.7
20260505023023 50 49 0.0 0.0 0.00 0.00 0.00 90 1014.8
20260505021526 50 49 0.0 0.0 0.00 0.00 0.00 90 1014.9
20260505020017 50 49 0.0 0.0 0.00 0.00 0.00 90 1014.9
20260505014517 50 49 0.0 0.0 0.00 0.00 0.00 90 1015.0
20260505013015 50 49 0.0 0.0 0.00 0.00 0.00 90 1015.1
20260505011514 51 49 0.0 0.0 0.00 0.00 0.00 90 1015.0
20260505010012 51 49 0.0 0.0 0.00 0.00 0.00 90 1015.2
20260505004519 51 49 0.0 0.0 0.00 0.00 0.00 90 1015.4
20260505003009 51 49 0.0 0.0 0.00 0.00 0.00 90 1015.6
20260505001509 51 49 0.0 0.0 0.00 0.00 0.00 90 1015.8
20260505000019 51 49 0.0 0.0 0.00 0.00 0.00 90 1015.8
20260504234506 51 49 0.0 0.0 0.00 0.00 0.00 90 1015.6
20260504233005 51 49 0.0 0.0 0.00 0.00 0.00 90 1015.7
20260504231503 51 49 0.0 0.0 0.00 0.00 0.00 91 1015.5
20260504230004 52 49 0.0 0.0 0.00 0.00 0.00 91 1015.4
20260504224601 52 49 0.0 0.0 0.00 0.00 0.00 91 1015.8
20260504223103 52 49 0.0 0.0 0.00 0.00 0.00 91 1015.9
20260504221604 52 49 0.0 0.0 0.00 0.00 0.00 91 1015.9
20260504220059 52 49 0.0 0.0 0.00 0.00 0.00 91 1016.0
20260504214614 52 49 0.0 0.0 0.00 0.00 0.00 91 1016.0
20260504213116 52 49 0.0 0.0 0.00 0.00 0.00 90 1015.9
20260504211557 52 49 0.0 0.0 0.00 0.00 0.00 90 1016.0
20260504210059 52 49 0.0 0.0 0.00 0.00 0.00 90 1016.0
20260504204555 52 49 0.0 0.0 0.00 0.00 0.00 89 1015.9
20260504203103 52 49 0.0 0.0 0.00 0.00 0.00 89 1015.8
20260504201611 52 49 0.0 0.0 0.00 0.00 0.00 89 1015.7
20260504200052 53 49 0.0 0.0 0.00 0.00 0.00 88 1015.5
20260504194554 53 49 0.0 0.0 0.00 0.00 0.00 88 1015.4